#timestamp,LO_Frequency,Hit,StdDev 
1581476415.5,286047004.2,N
1581476435.3,286047004.0,N
1581476455.2,286046999.7,N
1581476475.0,286047003.8,N
1581476475.9,286047003.8,N
1581476495.7,286047001.4,N
1581476515.6,286047002.1,N
1581476535.4,286047004.4,N
1581476555.3,286047004.2,N
1581476575.1,286047001.9,N
1581476576.0,286047001.9,N
1581476595.8,286047000.3,N
1581476615.7,286047000.0,N
1581476635.5,286047002.8,N
1581476655.4,286047000.4,N
1581476675.2,286047004.2,N
1581476695.0,286047003.1,N
1581476695.9,286047003.1,N
1581476715.8,286047004.4,N
1581476735.6,286047003.3,N
1581476755.4,286047003.2,N
1581476775.3,286047003.1,N
1581476795.1,286047006.0,N
1581476815.9,286047005.3,N
1581476835.7,286047005.2,N
1581476855.5,286047005.9,N
1581476875.4,286047004.0,N
1581476895.2,286047005.9,Y
1581476915.1,286047002.3,P
1581476916.0,286047002.3,P
1581476935.8,286047000.9,N
1581476955.6,286047000.9,N
1581476975.5,286047002.4,N
1581476995.3,286047002.5,Y
1581477015.2,286047001.2,P
1581477035.9,286046998.5,P
1581477055.7,286047000.7,N
1581477075.6,286047000.4,N
1581477095.4,286047000.8,N
1581477115.3,286047000.8,N
1581477135.1,286046998.3,N
1581477136.0,286046998.3,N
1581477155.8,286047001.0,N
1581477175.7,286047001.1,N
1581477195.5,286047000.4,N
1581477215.3,286047000.3,N
1581477235.2,286047002.8,N
1581477255.0,286047001.6,N
1581477255.9,286047001.6,N
1581477275.8,286047002.0,N
1581477295.6,286047001.6,N
1581477315.4,286047000.2,N
1581477335.3,286047002.2,N
1581477355.1,286047001.5,N
1581477375.8,286047000.5,N
1581477395.7,286047000.7,N
1581477415.5,286047001.8,N
1581477435.4,286047001.9,N
1581477455.2,286047004.4,Y
1581477475.0,286047002.7,P
1581477475.9,286047002.7,N
1581477495.8,286047000.4,N
1581477515.6,286046998.1,N
1581477535.5,286047000.5,N
1581477555.3,286047003.8,N
1581477575.1,286047003.4,N
1581477595.9,286047006.0,Y
1581477615.7,286047004.3,P
1581477635.5,286047003.7,N
1581477655.4,286047001.4,N
1581477675.2,286047001.5,N
1581477695.1,286047002.8,N
1581477696.0,286047002.8,N
1581477715.8,286047000.1,N
1581477735.6,286046998.5,N
1581477755.5,286046998.4,N
1581477775.3,286046998.8,N
1581477795.2,286046998.6,N
1581477815.9,286046998.7,N
1581477835.7,286046999.8,N
1581477855.6,286047004.3,N
1581477875.4,286047004.2,N
1581477895.2,286047002.5,N
1581477915.1,286047002.1,N
1581477916.0,286047002.1,N
1581477935.8,286047001.5,N
1581477955.7,286047001.5,N
1581477975.5,286047004.4,N
1581477995.3,286047001.7,N
1581478015.2,286047001.7,N
1581478035.0,286047001.0,N
1581478035.9,286047001.0,N
1581478055.8,286046998.1,N
1581478075.6,286047000.2,N
1581478095.4,286047000.9,N
1581478115.3,286047000.9,N
1581478135.1,286046999.9,N
1581478155.9,286046998.2,N
1581478175.7,286047001.2,N
1581478195.5,286046998.4,N
1581478215.4,286046999.3,N
1581478235.2,286047000.4,N
1581478255.0,286047000.5,N
1581478255.9,286047000.5,N
1581478275.8,286047001.6,N
1581478295.6,286047002.8,N
1581478315.5,286047001.4,N
1581478335.3,286047001.4,N
1581478355.1,286047004.2,N
1581478375.9,286047002.2,N
1581478395.7,286047003.1,N
1581478415.5,286047002.0,N
1581478435.4,286047001.1,N
1581478455.2,286047001.0,N
1581478475.1,286046999.7,N
1581478476.0,286046999.7,N
1581478495.8,286047002.7,N
1581478515.6,286047000.2,N
1581478535.5,286047002.5,N
1581478555.3,286047002.6,N
1581478575.1,286047000.9,N
1581478595.9,286047000.7,N
1581478615.7,286046999.7,N
1581478635.6,286047002.2,N
1581478655.4,286047001.8,N
1581478675.2,286047002.8,N
1581478695.1,286047002.8,N
1581478696.0,286047002.8,N
1581478715.8,286047003.8,N
1581478735.6,286047001.6,N
1581478755.5,286047000.5,N
1581478775.3,286047002.4,N
1581478795.2,286047002.3,N
1581478815.9,286047002.6,N
1581478835.7,286047003.8,Y
1581478855.6,286047000.2,P
1581478875.4,286047002.0,N
1581478895.3,286047001.5,N
1581478915.1,286047002.5,Y
1581478916.0,286047002.5,P
1581478935.8,286046998.7,N
1581478955.7,286046998.9,N
1581478975.5,286046998.6,N
1581478995.3,286046999.5,N
1581479015.2,286046997.8,N
1581479035.0,286046995.5,N
1581479035.9,286046995.5,N
1581479055.8,286046993.5,N
1581479075.6,286046993.8,N
1581479095.4,286046993.5,N
1581479115.3,286046993.4,N
1581479135.1,286046994.9,N
1581479155.9,286046998.0,N
1581479175.7,286046997.0,N
1581479195.5,286046998.6,N
1581479215.4,286046996.6,N
1581479235.2,286046998.8,N
1581479255.0,286046999.1,N
1581479255.9,286046999.1,N
1581479275.8,286046997.0,N
1581479295.6,286046997.1,N
1581479315.5,286046996.7,N
1581479335.3,286046998.1,N
1581479355.1,286047002.7,N
1581479375.9,286046999.1,N
1581479395.7,286046994.9,N
1581479415.5,286046997.1,N
1581479435.4,286046995.0,N
1581479455.2,286046995.8,N
1581479475.1,286046995.5,N
1581479476.0,286046995.5,N
1581479495.8,286046996.6,N
1581479515.6,286046998.8,N
1581479535.5,286047000.5,N
1581479555.3,286046998.7,N
1581479575.2,286046996.7,N
1581479595.9,286046997.4,N
1581479615.7,286047000.7,N
1581479635.6,286047000.7,N
1581479655.4,286046998.2,N
1581479675.3,286046998.7,N
1581479695.1,286046997.2,N
1581479696.0,286046997.2,N
1581479715.8,286046996.7,N
1581479735.7,286046998.3,N
1581479755.5,286046999.1,N
1581479775.3,286046997.8,N
1581479795.2,286046996.6,N
1581479815.0,286046998.2,N
1581479815.9,286046998.2,N
1581479835.8,286046999.0,N
1581479855.6,286047000.1,N
1581479875.4,286047000.1,N
1581479895.3,286047000.0,N
1581479915.1,286047002.4,N
1581479935.9,286047002.4,N
1581479955.7,286047000.3,N
1581479975.5,286047000.4,N
1581479995.4,286047000.3,N
